Regional Weather Roundup
Issued by NWS

Home | Current Version | Previous Version | Graphics & Text | Print | Product List | Glossary On
Versions: 1 2 3 4 5 6 7 8 9 10 11 12 13 14 15 16 17 18 19 20 21 22 23 24 25 26 27 28 29 30 31 32 33 34 35 36 37 38 39 40 41 42 43 44 45 46 47 48 49 50
000
ASUS45 KABQ 230510
RWRNM
NEW MEXICO REGIONAL WEATHER ROUNDUP
NATIONAL WEATHER SERVICE ALBUQUERQUE NM
1100 PM MDT WED MAR 22 2017

NOTE: "FAIR" MEANS FEW OR NO CLOUDS BELOW 12,000 FEET AGL WITH NO
       SIGNIFICANT WEATHER OR OBSTRUCTIONS TO VISION.

      THIS PRODUCT IS RELEASED AS TWO VERSIONS.  ONE VERSION NEAR
      THE TOP OF THE HOUR CONTAINING PRELIMINARY DATA FROM ALBUQUERQUE
      AND OTHER STATIONS.  A FINAL VERSION WITH ADDITIONAL DATA IS
      ISSUED ABOUT 10 MINUTES AFTER THE HOUR.

NMZ501-503-504-510>518-230600-
NORTHWEST PLATEAU/NORTHCENTRAL MOUNTAINS

CITY           SKY/WX    TMP DP  RH WIND       PRES   REMARKS
FARMINGTON     FAIR      55  17  22 SE5       29.86F
LOS ALAMOS     FAIR      59  11  15 S8        30.02F
SANTA FE       FAIR      59  13  16 SE9       29.98S
TAOS             N/A     63  12  14 S16G26    29.99S
ANGEL FIRE     FAIR      51  31  45 S13       30.10S

$$
NMZ402-403-502-505>509-230600-
WESTCENTRAL MOUNTAINS/SOUTHWEST MOUNTAINS

CITY           SKY/WX    TMP DP  RH WIND       PRES   REMARKS
GALLUP         FAIR      54  22  28 S9        29.96S
GRANTS         FAIR      48  17  29 S5        29.99F
SILVER CITY    FAIR      51  19  29 W8        30.01S

$$
NMZ407-409-411-412-230600-
SOUTHERN DESERTS

CITY           SKY/WX    TMP DP  RH WIND       PRES   REMARKS
DEMING         FAIR      66  16  14 S14       29.95S
LAS CRUCES     FAIR      67  14  13 W9        29.96R
HOLLOMAN AFB   FAIR      62  13  14 SE5       29.96R
ALAMOGORDO     FAIR      63  19  19 SE8       29.95R
T OR C         FAIR      69  14  12 SW10      29.93S

$$
NMZ519>523-230600-
CENTRAL VALLEYS/CENTRAL HIGHLANDS

CITY           SKY/WX    TMP DP  RH WIND       PRES   REMARKS
ALBUQUERQUE    MOCLDY    63  14  15 SE10      29.93F
DOUBLE EAGLE   FAIR      56  19  22 SW9       29.95F
MORIARTY ARPT  FAIR      55  15  20 S9        30.01F
CLINES CORNERS FAIR      59  12  15 S16       30.06F
BELEN          FAIR      64  16  15 S12       29.92F
SOCORRO        FAIR      59  19  21 SE10      29.92F

$$
NMZ524>526-539-540-230600-
SOUTHCENTRAL MOUNTAINS

CITY           SKY/WX    TMP DP  RH WIND       PRES   REMARKS
RUIDOSO        MOCLDY    54   7  15 SW3       30.09F

$$
NMZ527>531-230600-
NORTHEAST HIGHLANDS/NORTHEAST PLAINS

CITY           SKY/WX    TMP DP  RH WIND       PRES   REMARKS
LAS VEGAS      FAIR      58  38  47 S15       30.03F
RATON          FAIR      50  38  63 S7        29.99F
CLAYTON        FAIR      51  46  83 S9        29.97S

$$
NMZ532>537-230600-
EASTCENTRAL PLAINS

CITY           SKY/WX    TMP DP  RH WIND       PRES   REMARKS
SANTA ROSA     FAIR      65  47  52 SE12      29.93F
TUCUMCARI      FAIR      66  52  60 S16       29.91F
CANNON AFB     FAIR      63  59  88 SE13      29.96F
CLOVIS AIRPORT FAIR      63  50  63 SE16      29.97S

$$
NMZ028-029-538-230600-
SOUTHEAST PLAINS

CITY           SKY/WX    TMP DP  RH WIND       PRES   REMARKS
ROSWELL        FAIR      72  43  35 S13         N/A
ARTESIA        FAIR      72  48  43 S15G23    29.92S
CARLSBAD       FAIR      71  57  61 SE21G30   29.90R
HOBBS          FAIR      68  48  49 SE20      29.97R


$$



USA.gov is the U.S. government's official web portal to all federal, state and local government web resources and services.